TimeCDT,TemperatureF,Dew PointF,Humidity,Sea Level PressureIn,VisibilityMPH,Wind Direction,Wind SpeedMPH,Gust SpeedMPH,PrecipitationIn,Events,Conditions,WindDirDegrees,DateUTC
12:15 AM,59.0,57.2,94,30.06,7.0,Calm,Calm,-,N/A,,Clear,0,2013-07-11 05:15:00
12:35 AM,55.4,53.6,94,30.06,7.0,Calm,Calm,-,N/A,,Clear,0,2013-07-11 05:35:00
12:55 AM,55.4,55.4,100,30.06,7.0,Calm,Calm,-,N/A,,Clear,0,2013-07-11 05:55:00
1:15 AM,55.4,55.4,100,30.07,7.0,Calm,Calm,-,N/A,,Clear,0,2013-07-11 06:15:00
1:35 AM,55.4,55.4,100,30.07,7.0,Calm,Calm,-,N/A,,Clear,0,2013-07-11 06:35:00
1:55 AM,55.4,55.4,100,30.07,7.0,Calm,Calm,-,N/A,,Clear,0,2013-07-11 06:55:00
2:15 AM,57.2,57.2,100,30.07,7.0,Calm,Calm,-,N/A,,Clear,0,2013-07-11 07:15:00
2:35 AM,59.0,55.4,88,30.09,10.0,Calm,Calm,-,N/A,,Clear,0,2013-07-11 07:35:00
2:55 AM,57.2,55.4,94,30.09,10.0,Calm,Calm,-,N/A,,Clear,0,2013-07-11 07:55:00
3:15 AM,57.2,57.2,100,30.09,7.0,Calm,Calm,-,N/A,,Clear,0,2013-07-11 08:15:00
3:35 AM,59.0,59.0,100,30.09,7.0,West,3.5,-,N/A,,Clear,260,2013-07-11 08:35:00
3:55 AM,57.2,57.2,100,30.09,7.0,Calm,Calm,-,N/A,,Scattered Clouds,0,2013-07-11 08:55:00
4:15 AM,55.4,55.4,100,30.09,7.0,Calm,Calm,-,N/A,,Scattered Clouds,0,2013-07-11 09:15:00
4:35 AM,57.2,57.2,100,30.10,7.0,Calm,Calm,-,N/A,,Clear,0,2013-07-11 09:35:00
4:55 AM,59.0,59.0,100,30.11,10.0,Calm,Calm,-,N/A,,Clear,0,2013-07-11 09:55:00
5:15 AM,59.0,57.2,94,30.11,10.0,Calm,Calm,-,N/A,,Clear,0,2013-07-11 10:15:00
5:35 AM,57.2,57.2,100,30.11,7.0,Calm,Calm,-,N/A,,Clear,0,2013-07-11 10:35:00
5:45 AM,57.2,57.2,100,30.11,10.0,Calm,Calm,-,N/A,,Clear,0,2013-07-11 10:45:00
6:00 AM,80.6,73.4,79,30.02,10.0,SW,5.8,-,N/A,,Mostly Cloudy,230,2013-07-11 11:00:00
6:50 AM,60.8,59.0,94,30.13,10.0,Calm,Calm,-,N/A,,Clear,0,2013-07-11 11:50:00
7:45 AM,66.2,59.0,78,30.14,10.0,Calm,Calm,-,N/A,,Clear,0,2013-07-11 12:45:00
8:55 AM,69.8,59.0,68,30.14,10.0,Calm,Calm,-,N/A,,Clear,0,2013-07-11 13:55:00
10:45 AM,73.4,53.6,50,30.15,10.0,Calm,Calm,-,N/A,,Scattered Clouds,0,2013-07-11 15:45:00
11:52 AM,75.2,53.6,47,30.14,10.0,Calm,Calm,-,N/A,,Scattered Clouds,0,2013-07-11 16:52:00
12:45 PM,77.0,51.8,41,30.14,10.0,Variable,3.5,-,N/A,,Scattered Clouds,0,2013-07-11 17:45:00
1:45 PM,77.0,53.6,44,30.14,10.0,Calm,Calm,-,N/A,,Scattered Clouds,0,2013-07-11 18:45:00
2:50 PM,80.6,51.8,37,30.12,10.0,SSW,4.6,-,N/A,,Scattered Clouds,210,2013-07-11 19:50:00
3:45 PM,78.8,51.8,39,30.11,10.0,SSW,5.8,-,N/A,,Partly Cloudy,210,2013-07-11 20:45:00
4:45 PM,78.8,53.6,42,30.10,10.0,SW,8.1,-,N/A,,Scattered Clouds,220,2013-07-11 21:45:00
5:45 PM,78.8,53.6,42,30.10,10.0,South,5.8,-,N/A,,Partly Cloudy,170,2013-07-11 22:45:00
6:45 PM,77.0,53.6,44,30.10,10.0,SW,3.5,-,N/A,,Clear,220,2013-07-11 23:45:00
7:45 PM,73.4,59.0,61,30.09,10.0,SSE,4.6,-,N/A,,Clear,150,2013-07-12 00:45:00
8:45 PM,69.8,57.2,64,30.09,10.0,SE,4.6,-,N/A,,Clear,140,2013-07-12 01:45:00
9:45 PM,66.2,59.0,78,30.10,10.0,SE,8.1,-,N/A,,Clear,140,2013-07-12 02:45:00
10:15 PM,64.4,59.0,83,30.10,10.0,SE,3.5,-,N/A,,Clear,140,2013-07-12 03:15:00
10:35 PM,62.6,57.2,82,30.11,10.0,SE,5.8,-,N/A,,Clear,140,2013-07-12 03:35:00
10:55 PM,62.6,57.2,82,30.10,7.0,SSE,5.8,-,N/A,,Clear,150,2013-07-12 03:55:00
11:15 PM,62.6,55.4,77,30.10,7.0,SE,4.6,-,N/A,,Clear,140,2013-07-12 04:15:00
11:35 PM,62.6,55.4,77,30.11,7.0,SE,4.6,-,N/A,,Clear,130,2013-07-12 04:35:00
11:55 PM,62.6,55.4,77,30.11,7.0,SE,4.6,-,N/A,,Clear,130,2013-07-12 04:55:00